Location: Poughquag
(41.6090°N, 73.6820°W)
Time: 03:16:12
(UTC-04:00)

Vanguard 2 - Pass Details

Date: 04 June 2020
Orbit: 552 x 2938 km, 32.9° (Epoch: 06 July)

Event Time Altitude Azimuth Distance (km) Brightness Sun altitude
Rises 23:25:31 0° 272° (W) 5,016 12.0 -22.7°
Reaches altitude 10° 23:30:09 10° 261° (W) 3,553 11.0 -23.0°
Enters shadow 23:36:06 23° 217° (SW) 2,145 9.5 -23.4°
Maximum altitude 23:36:22 23° 214° (SW) 2,118 - -23.4°
Drops below altitude 10° 23:40:51 10° 163° (SSE) 2,452 - -23.6°
Sets 23:43:24 0° 147° (SSE) 3,150 - -23.8°
